Time,TemperatureF,DewpointF,PressureIn,WindDirection,WindDirectionDegrees,WindSpeedMPH,WindSpeedGustMPH,Humidity,HourlyPrecipIn,Conditions,Clouds,dailyrainin,SoftwareType,DateUTC
2013-09-10 15:16:00,86.0,73.6,30.05,WNW,293,0.0,0.0,66,0.00,,,0.00,WUHU21623XXSP,2013-09-10 20:16:00,
2013-09-10 15:32:00,88.7,73.1,30.05,WNW,292,0.0,0.0,60,0.00,,,0.00,WUHU21623XXSP,2013-09-10 20:32:00,
2013-09-10 15:33:00,88.7,73.1,30.05,WNW,292,0.0,0.0,60,0.00,,,0.00,WUHU21623XXSP,2013-09-10 20:33:00,
2013-09-10 15:38:00,88.7,73.1,30.05,WNW,292,0.0,0.0,60,0.00,,,0.00,WUHU21623XXSP,2013-09-10 20:38:00,
2013-09-10 15:43:00,90.3,73.0,30.05,SE,135,0.0,0.0,57,0.00,,,0.00,WUHU21623XXSP,2013-09-10 20:43:00,
2013-09-10 15:48:00,90.3,73.0,30.05,SE,135,0.0,0.0,57,0.00,,,0.00,WUHU21623XXSP,2013-09-10 20:48:00,
2013-09-10 15:53:00,90.3,73.0,30.05,SE,135,0.0,0.0,57,0.00,,,0.00,WUHU21623XXSP,2013-09-10 20:53:00,
2013-09-10 15:58:00,90.3,73.0,30.05,SE,135,0.0,0.0,57,0.00,,,0.00,WUHU21623XXSP,2013-09-10 20:58:00,
2013-09-10 16:03:00,89.6,72.3,30.05,SE,135,0.0,0.0,57,0.00,,,0.00,WUHU21623XXSP,2013-09-10 21:03:00,
2013-09-10 16:08:00,89.6,72.3,30.05,SE,135,0.0,0.0,57,0.00,,,0.00,WUHU21623XXSP,2013-09-10 21:08:00,
2013-09-10 16:13:00,89.6,72.3,30.05,SE,135,0.0,0.0,57,0.00,,,0.00,WUHU21623XXSP,2013-09-10 21:13:00,
2013-09-10 16:18:00,89.6,72.3,30.05,SE,135,0.0,0.0,57,0.00,,,0.00,WUHU21623XXSP,2013-09-10 21:18:00,
2013-09-10 16:23:00,93.0,71.2,30.05,SE,135,0.0,0.0,55,0.00,,,0.00,WUHU21623XXSP,2013-09-10 21:23:00,
2013-09-10 16:28:00,93.0,74.4,30.05,SE,135,0.0,0.0,55,0.00,,,0.00,WUHU21623XXSP,2013-09-10 21:28:00,
2013-09-10 16:33:00,93.4,74.7,30.05,SE,135,0.0,0.0,50,0.00,,,0.00,WUHU21623XXSP,2013-09-10 21:33:00,
2013-09-10 16:38:00,93.4,72.0,30.05,SE,135,0.0,0.0,50,0.00,,,0.00,WUHU21623XXSP,2013-09-10 21:38:00,
2013-09-10 16:43:00,93.6,71.5,30.05,SE,135,4.3,4.3,49,0.00,,,0.00,WUHU21623XXSP,2013-09-10 21:43:00,
2013-09-10 16:48:00,93.4,70.6,30.05,SE,135,3.6,4.3,48,0.00,,,0.00,WUHU21623XXSP,2013-09-10 21:48:00,
2013-09-10 16:53:00,93.4,71.3,30.05,SE,135,3.4,3.6,49,0.00,,,0.00,WUHU21623XXSP,2013-09-10 21:53:00,
2013-09-10 16:58:00,93.4,71.3,30.05,SSE,157,0.0,3.4,49,0.00,,,0.00,WUHU21623XXSP,2013-09-10 21:58:00,
2013-09-10 17:03:00,92.8,70.2,30.05,SE,135,0.0,0.0,48,0.00,,,0.00,WUHU21623XXSP,2013-09-10 22:03:00,
2013-09-10 17:08:00,92.7,70.0,30.05,SE,135,0.0,0.0,48,0.00,,,0.00,WUHU21623XXSP,2013-09-10 22:08:00,
2013-09-10 17:13:00,91.8,70.5,30.04,ESE,112,0.0,0.0,50,0.00,,,0.00,WUHU21623XXSP,2013-09-10 22:13:00,
2013-09-10 17:18:00,91.8,70.5,30.05,ESE,112,0.0,0.0,50,0.00,,,0.00,WUHU21623XXSP,2013-09-10 22:18:00,
2013-09-10 17:23:00,91.0,69.2,30.04,SE,135,0.0,0.0,49,0.00,,,0.00,WUHU21623XXSP,2013-09-10 22:23:00,
2013-09-10 17:28:00,90.7,69.0,30.05,SE,135,0.0,0.0,49,0.00,,,0.00,WUHU21623XXSP,2013-09-10 22:28:00,
2013-09-10 17:33:00,90.9,69.7,30.05,SE,135,0.0,0.0,50,0.00,,,0.00,WUHU21623XXSP,2013-09-10 22:33:00,
2013-09-10 17:38:00,90.9,69.7,30.05,SE,135,0.0,0.0,50,0.00,,,0.00,WUHU21623XXSP,2013-09-10 22:38:00,
2013-09-10 17:43:00,90.9,69.7,30.05,SE,135,0.0,0.0,50,0.00,,,0.00,WUHU21623XXSP,2013-09-10 22:43:00,
2013-09-10 17:48:00,90.9,69.7,30.05,SE,135,0.0,0.0,50,0.00,,,0.00,WUHU21623XXSP,2013-09-10 22:48:00,
2013-09-10 17:53:00,90.7,69.7,30.06,SE,135,0.0,0.0,50,0.00,,,0.00,WUHU21623XXSP,2013-09-10 22:53:00,
2013-09-10 17:58:00,90.3,69.2,30.06,SE,135,0.0,0.0,50,0.00,,,0.00,WUHU21623XXSP,2013-09-10 22:58:00,
2013-09-10 18:03:00,90.1,69.0,30.06,ESE,112,0.0,0.0,50,0.00,,,0.00,WUHU21623XXSP,2013-09-10 23:03:00,
2013-09-10 18:08:00,90.1,69.0,30.06,SE,135,0.0,0.0,50,0.00,,,0.00,WUHU21623XXSP,2013-09-10 23:08:00,
2013-09-10 18:13:00,90.1,69.0,30.06,SE,135,0.0,0.0,50,0.00,,,0.00,WUHU21623XXSP,2013-09-10 23:13:00,
2013-09-10 18:18:00,90.1,69.0,30.06,SE,135,0.0,0.0,50,0.00,,,0.00,WUHU21623XXSP,2013-09-10 23:18:00,
2013-09-10 18:23:00,90.1,69.0,30.06,SE,135,0.0,0.0,50,0.00,,,0.00,WUHU21623XXSP,2013-09-10 23:23:00,
2013-09-10 18:45:00,86.7,67.5,30.07,ESE,112,0.0,0.0,53,0.00,,,0.00,WUHU21623XXSP,2013-09-10 23:45:00,
2013-09-10 18:50:00,86.5,68.4,30.08,ESE,112,2.0,2.0,55,0.00,,,0.00,WUHU21623XXSP,2013-09-10 23:50:00,
2013-09-10 18:55:00,85.8,67.7,30.08,ESE,112,2.0,2.0,55,0.00,,,0.00,WUHU21623XXSP,2013-09-10 23:55:00,
2013-09-10 19:00:00,85.8,67.7,30.09,ESE,112,2.5,2.5,55,0.00,,,0.00,WUHU21623XXSP,2013-09-11 00:00:00,
2013-09-10 19:05:00,83.8,67.0,30.09,SE,135,4.3,4.3,57,0.00,,,0.00,WUHU21623XXSP,2013-09-11 00:05:00,
2013-09-10 19:10:00,83.3,67.0,30.09,SE,135,4.3,4.3,58,0.00,,,0.00,WUHU21623XXSP,2013-09-11 00:10:00,
2013-09-10 19:15:00,83.3,67.0,30.09,SE,135,4.3,4.3,58,0.00,,,0.00,WUHU21623XXSP,2013-09-11 00:15:00,
2013-09-10 19:20:00,83.3,67.0,30.09,SE,135,4.3,4.3,58,0.00,,,0.00,WUHU21623XXSP,2013-09-11 00:20:00,
2013-09-10 19:25:00,83.3,67.0,30.09,SE,135,4.3,4.3,58,0.00,,,0.00,WUHU21623XXSP,2013-09-11 00:25:00,
2013-09-10 19:30:00,83.3,67.0,30.09,SE,135,4.3,4.3,58,0.00,,,0.00,WUHU21623XXSP,2013-09-11 00:30:00,
2013-09-10 21:23:00,77.2,66.3,30.10,ESE,112,0.0,0.0,69,0.00,,,0.00,WUHU21623XXSP,2013-09-11 02:23:00,
2013-09-10 21:28:00,77.2,66.3,30.10,East,90,0.0,0.0,69,0.00,,,0.00,WUHU21623XXSP,2013-09-11 02:28:00,
2013-09-10 21:32:00,77.2,66.3,30.10,East,90,0.0,0.0,69,0.00,,,0.00,WUHU21623XXSP,2013-09-11 02:32:00,
2013-09-10 21:37:00,77.0,65.9,30.10,East,90,0.0,0.0,70,0.00,,,0.00,WUHU21623XXSP,2013-09-11 02:37:00,
2013-09-10 21:42:00,77.0,66.6,30.10,ESE,112,0.0,0.0,70,0.00,,,0.00,WUHU21623XXSP,2013-09-11 02:42:00,
2013-09-10 21:48:00,76.8,66.6,30.10,ESE,112,0.0,0.0,70,0.00,,,0.00,WUHU21623XXSP,2013-09-11 02:48:00,
2013-09-10 21:53:00,76.8,66.4,30.10,ESE,112,0.0,0.0,70,0.00,,,0.00,WUHU21623XXSP,2013-09-11 02:53:00,
2013-09-10 21:58:00,76.6,66.4,30.10,ESE,112,0.0,0.0,70,0.00,,,0.00,WUHU21623XXSP,2013-09-11 02:58:00,
2013-09-10 22:03:00,76.6,66.2,30.10,ESE,112,0.0,0.0,70,0.00,,,0.00,WUHU21623XXSP,2013-09-11 03:03:00,
2013-09-10 22:08:00,76.6,66.2,30.10,ESE,112,0.0,0.0,70,0.00,,,0.00,WUHU21623XXSP,2013-09-11 03:08:00,
2013-09-10 22:13:00,76.6,66.2,30.10,ESE,112,0.0,0.0,70,0.00,,,0.00,WUHU21623XXSP,2013-09-11 03:13:00,
2013-09-10 22:18:00,76.6,66.2,30.10,ESE,112,0.0,0.0,70,0.00,,,0.00,WUHU21623XXSP,2013-09-11 03:18:00,
2013-09-10 22:23:00,76.6,66.2,30.10,ESE,112,0.0,0.0,70,0.00,,,0.00,WUHU21623XXSP,2013-09-11 03:23:00,
2013-09-10 22:28:00,76.6,66.2,30.10,ESE,112,0.0,0.0,70,0.00,,,0.00,WUHU21623XXSP,2013-09-11 03:28:00,
2013-09-10 22:33:00,76.6,66.2,30.10,ESE,112,0.0,0.0,70,0.00,,,0.00,WUHU21623XXSP,2013-09-11 03:33:00,
2013-09-10 22:38:00,76.6,66.2,30.10,ESE,112,0.0,0.0,70,0.00,,,0.00,WUHU21623XXSP,2013-09-11 03:38:00,
2013-09-10 22:43:00,76.6,66.2,30.10,ESE,112,0.0,0.0,70,0.00,,,0.00,WUHU21623XXSP,2013-09-11 03:43:00,
2013-09-10 22:48:00,76.6,66.2,30.10,ESE,112,0.0,0.0,70,0.00,,,0.00,WUHU21623XXSP,2013-09-11 03:48:00,